Time,TemperatureF,DewpointF,PressureIn,WindDirection,WindDirectionDegrees,WindSpeedMPH,WindSpeedGustMPH,Humidity,HourlyPrecipIn,Conditions,Clouds,dailyrainin,SolarRadiationWatts/m^2,SoftwareType,DateUTC
2013-01-08 00:00:00,30.1,14.6,29.78,South,172,6.0,6.0,52,0.00,,,0.00,0,Wunderground v.1.15,2013-01-08 07:00:00,
2013-01-08 00:10:00,30.6,14.1,29.77,South,172,4.0,12.0,50,0.00,,,0.00,0,Wunderground v.1.15,2013-01-08 07:10:00,
2013-01-08 00:15:00,31.0,13.6,29.77,South,178,4.0,12.0,48,0.00,,,0.00,0,Wunderground v.1.15,2013-01-08 07:15:00,
2013-01-08 00:20:00,31.1,13.7,29.76,South,175,5.0,5.0,48,0.00,,,0.00,0,Wunderground v.1.15,2013-01-08 07:20:00,
2013-01-08 00:25:00,30.8,13.9,29.76,South,169,6.0,7.0,49,0.00,,,0.00,0,Wunderground v.1.15,2013-01-08 07:25:00,
2013-01-08 00:30:00,30.6,13.7,29.76,South,178,5.0,5.0,49,0.00,,,0.00,0,Wunderground v.1.15,2013-01-08 07:30:00,
2013-01-08 00:35:00,30.4,14.0,29.76,South,178,4.0,12.0,50,0.00,,,0.00,0,Wunderground v.1.15,2013-01-08 07:35:00,
2013-01-08 00:45:00,30.1,14.1,29.76,South,178,3.0,12.0,51,0.00,,,0.00,0,Wunderground v.1.15,2013-01-08 07:45:00,
2013-01-08 00:50:00,29.7,14.2,29.76,South,178,1.0,12.0,52,0.00,,,0.00,0,Wunderground v.1.15,2013-01-08 07:50:00,
2013-01-08 00:55:00,29.3,14.3,29.76,South,183,2.0,12.0,53,0.00,,,0.00,0,Wunderground v.1.15,2013-01-08 07:55:00,
2013-01-08 01:00:00,29.6,13.7,29.76,South,180,4.0,12.0,51,0.00,,,0.00,0,Wunderground v.1.15,2013-01-08 08:00:00,
2013-01-08 01:10:00,30.4,13.5,29.76,South,177,5.0,5.0,49,0.00,,,0.00,0,Wunderground v.1.15,2013-01-08 08:10:00,
2013-01-08 01:15:00,30.9,13.0,29.76,South,177,4.0,12.0,47,0.00,,,0.00,0,Wunderground v.1.15,2013-01-08 08:15:00,
2013-01-08 01:20:00,31.2,12.3,29.76,South,178,4.0,12.0,45,0.00,,,0.00,0,Wunderground v.1.15,2013-01-08 08:20:00,
2013-01-08 01:25:00,31.3,12.9,29.76,South,171,4.0,12.0,46,0.00,,,0.00,0,Wunderground v.1.15,2013-01-08 08:25:00,
2013-01-08 01:30:00,31.4,12.5,29.76,South,179,4.0,12.0,45,0.00,,,0.00,0,Wunderground v.1.15,2013-01-08 08:30:00,
2013-01-08 01:35:00,31.6,12.7,29.77,South,175,4.0,12.0,45,0.00,,,0.00,0,Wunderground v.1.15,2013-01-08 08:35:00,
2013-01-08 01:45:00,31.7,12.8,29.77,South,175,2.0,12.0,45,0.00,,,0.00,0,Wunderground v.1.15,2013-01-08 08:45:00,
2013-01-08 01:50:00,31.5,12.6,29.77,South,175,1.0,12.0,45,0.00,,,0.00,0,Wunderground v.1.15,2013-01-08 08:50:00,
2013-01-08 01:55:00,32.0,12.0,29.77,SSE,160,3.0,12.0,43,0.00,,,0.00,0,Wunderground v.1.15,2013-01-08 08:55:00,
2013-01-08 02:00:00,32.6,12.5,29.78,SSE,163,3.0,3.0,43,0.00,,,0.00,0,Wunderground v.1.15,2013-01-08 09:00:00,
2013-01-08 02:05:00,32.5,12.5,29.77,South,191,2.0,5.0,43,0.00,,,0.00,0,Wunderground v.1.15,2013-01-08 09:05:00,
2013-01-08 02:15:00,31.6,12.7,29.78,SW,217,3.0,12.0,45,0.00,,,0.00,0,Wunderground v.1.15,2013-01-08 09:15:00,
2013-01-08 02:20:00,31.3,12.9,29.78,SW,215,3.0,12.0,46,0.00,,,0.00,0,Wunderground v.1.15,2013-01-08 09:20:00,
2013-01-08 02:25:00,31.5,12.1,29.78,SSW,200,3.0,12.0,44,0.00,,,0.00,0,Wunderground v.1.15,2013-01-08 09:25:00,
2013-01-08 02:30:00,32.1,11.6,29.78,SSW,200,4.0,12.0,42,0.00,,,0.00,0,Wunderground v.1.15,2013-01-08 09:30:00,
2013-01-08 02:35:00,32.6,11.5,29.77,SSW,200,3.0,12.0,41,0.00,,,0.00,0,Wunderground v.1.15,2013-01-08 09:35:00,
2013-01-08 02:45:00,33.2,11.5,29.77,SSW,199,4.0,12.0,40,0.00,,,0.00,0,Wunderground v.1.15,2013-01-08 09:45:00,
2013-01-08 02:50:00,33.3,11.0,29.77,South,186,4.0,12.0,39,0.00,,,0.00,0,Wunderground v.1.15,2013-01-08 09:50:00,
2013-01-08 02:55:00,33.6,10.1,29.77,South,179,5.0,12.0,37,0.00,,,0.00,0,Wunderground v.1.15,2013-01-08 09:55:00,
2013-01-08 03:00:00,34.1,9.9,29.77,South,179,4.0,4.0,36,0.00,,,0.00,0,Wunderground v.1.15,2013-01-08 10:00:00,
2013-01-08 03:05:00,34.7,9.8,29.77,South,179,2.0,12.0,35,0.00,,,0.00,0,Wunderground v.1.15,2013-01-08 10:05:00,
2013-01-08 03:10:00,35.3,9.7,29.76,South,178,3.0,12.0,34,0.00,,,0.00,0,Wunderground v.1.15,2013-01-08 10:10:00,
2013-01-08 03:20:00,35.4,9.1,29.76,South,173,4.0,12.0,33,0.00,,,0.00,0,Wunderground v.1.15,2013-01-08 10:20:00,
2013-01-08 03:25:00,35.5,8.5,29.76,SSE,159,4.0,12.0,32,0.00,,,0.00,0,Wunderground v.1.15,2013-01-08 10:25:00,
2013-01-08 03:30:00,35.7,8.7,29.76,South,173,5.0,12.0,32,0.00,,,0.00,0,Wunderground v.1.15,2013-01-08 10:30:00,
2013-01-08 03:35:00,35.6,9.3,29.77,South,173,5.0,12.0,33,0.00,,,0.00,0,Wunderground v.1.15,2013-01-08 10:35:00,
2013-01-08 03:40:00,35.2,9.6,29.77,South,173,3.0,3.0,34,0.00,,,0.00,0,Wunderground v.1.15,2013-01-08 10:40:00,
2013-01-08 03:50:00,34.8,9.2,29.77,South,173,2.0,12.0,34,0.00,,,0.00,0,Wunderground v.1.15,2013-01-08 10:50:00,
2013-01-08 03:55:00,35.0,8.7,29.77,South,173,2.0,12.0,33,0.00,,,0.00,0,Wunderground v.1.15,2013-01-08 10:55:00,
2013-01-08 04:00:00,35.0,10.1,29.77,South,173,2.0,12.0,35,0.00,,,0.00,0,Wunderground v.1.15,2013-01-08 11:00:00,
2013-01-08 04:05:00,34.8,8.6,29.77,South,173,3.0,12.0,33,0.00,,,0.00,0,Wunderground v.1.15,2013-01-08 11:05:00,
2013-01-08 04:10:00,34.8,9.2,29.78,South,173,3.0,3.0,34,0.00,,,0.00,0,Wunderground v.1.15,2013-01-08 11:10:00,
2013-01-08 04:15:00,34.6,9.7,29.78,South,173,2.0,12.0,35,0.00,,,0.00,0,Wunderground v.1.15,2013-01-08 11:15:00,
2013-01-08 04:25:00,33.9,10.3,29.78,South,173,1.0,12.0,37,0.00,,,0.00,0,Wunderground v.1.15,2013-01-08 11:25:00,
2013-01-08 04:30:00,33.5,10.6,29.78,South,173,0.0,12.0,38,0.00,,,0.00,0,Wunderground v.1.15,2013-01-08 11:30:00,
2013-01-08 04:35:00,33.2,11.5,29.78,South,173,0.0,12.0,40,0.00,,,0.00,0,Wunderground v.1.15,2013-01-08 11:35:00,
2013-01-08 04:40:00,33.1,11.4,29.78,South,173,0.0,12.0,40,0.00,,,0.00,0,Wunderground v.1.15,2013-01-08 11:40:00,
2013-01-08 04:45:00,33.4,10.5,29.78,South,173,1.0,12.0,38,0.00,,,0.00,0,Wunderground v.1.15,2013-01-08 11:45:00,
2013-01-08 04:55:00,35.4,11.7,29.78,SSW,207,2.0,12.0,37,0.00,,,0.00,0,Wunderground v.1.15,2013-01-08 11:55:00,
2013-01-08 05:00:00,37.1,13.2,29.78,North,355,2.0,2.0,37,0.00,,,0.00,0,Wunderground v.1.15,2013-01-08 12:00:00,
2013-01-08 05:05:00,36.5,11.4,29.78,North,355,2.0,12.0,35,0.00,,,0.00,0,Wunderground v.1.15,2013-01-08 12:05:00,
2013-01-08 05:10:00,36.6,12.1,29.77,North,355,2.0,12.0,36,0.00,,,0.00,0,Wunderground v.1.15,2013-01-08 12:10:00,
2013-01-08 05:15:00,37.1,13.2,29.77,North,355,1.0,12.0,37,0.00,,,0.00,0,Wunderground v.1.15,2013-01-08 12:15:00,
2013-01-08 05:25:00,39.8,14.3,29.77,North,355,1.0,12.0,35,0.00,,,0.00,0,Wunderground v.1.15,2013-01-08 12:25:00,
2013-01-08 05:30:00,39.6,13.5,29.78,SW,234,3.0,12.0,34,0.00,,,0.00,0,Wunderground v.1.15,2013-01-08 12:30:00,
2013-01-08 05:35:00,38.9,14.8,29.77,SW,235,4.0,12.0,37,0.00,,,0.00,0,Wunderground v.1.15,2013-01-08 12:35:00,
2013-01-08 05:40:00,40.6,15.0,29.77,NNW,336,4.0,12.0,35,0.00,,,0.00,0,Wunderground v.1.15,2013-01-08 12:40:00,
2013-01-08 05:45:00,43.4,14.7,29.78,North,5,6.0,12.0,31,0.00,,,0.00,0,Wunderground v.1.15,2013-01-08 12:45:00,
2013-01-08 05:50:00,46.1,14.8,29.78,NE,35,8.0,13.0,28,0.00,,,0.00,0,Wunderground v.1.15,2013-01-08 12:50:00,
2013-01-08 06:00:00,47.6,13.5,29.78,NNE,25,6.0,6.0,25,0.00,,,0.00,0,Wunderground v.1.15,2013-01-08 13:00:00,
2013-01-08 06:05:00,47.6,13.5,29.78,North,360,5.0,12.0,25,0.00,,,0.00,0,Wunderground v.1.15,2013-01-08 13:05:00,
2013-01-08 06:10:00,45.2,12.3,29.78,SSE,163,4.0,12.0,26,0.00,,,0.00,0,Wunderground v.1.15,2013-01-08 13:10:00,
2013-01-08 06:15:00,40.5,11.4,29.78,SSE,150,6.0,12.0,30,0.00,,,0.00,0,Wunderground v.1.15,2013-01-08 13:15:00,
2013-01-08 06:20:00,40.2,11.9,29.79,SSE,165,6.0,6.0,31,0.00,,,0.00,0,Wunderground v.1.15,2013-01-08 13:20:00,
2013-01-08 06:25:00,40.5,12.2,29.78,SSE,151,4.0,12.0,31,0.00,,,0.00,0,Wunderground v.1.15,2013-01-08 13:25:00,
2013-01-08 06:30:00,40.6,12.3,29.79,SSE,153,5.0,12.0,31,0.00,,,0.00,0,Wunderground v.1.15,2013-01-08 13:30:00,
2013-01-08 06:35:00,40.0,12.5,29.79,SSE,157,5.0,12.0,32,0.00,,,0.00,0,Wunderground v.1.15,2013-01-08 13:35:00,
2013-01-08 06:40:00,39.3,11.9,29.79,SSE,158,4.0,4.0,32,0.00,,,0.00,0,Wunderground v.1.15,2013-01-08 13:40:00,
2013-01-08 06:45:00,39.0,11.6,29.80,SSE,158,2.0,12.0,32,0.00,,,0.00,0,Wunderground v.1.15,2013-01-08 13:45:00,
2013-01-08 06:50:00,38.8,11.4,29.80,SSE,158,2.0,12.0,32,0.00,,,0.00,0,Wunderground v.1.15,2013-01-08 13:50:00,
2013-01-08 07:00:00,39.1,11.7,29.80,SSE,163,3.0,12.0,32,0.00,,,0.00,0,Wunderground v.1.15,2013-01-08 14:00:00,
2013-01-08 07:05:00,38.5,11.8,29.80,SSE,168,4.0,12.0,33,0.00,,,0.00,0,Wunderground v.1.15,2013-01-08 14:05:00,
2013-01-08 07:10:00,37.9,11.3,29.80,SSE,163,5.0,12.0,33,0.00,,,0.00,0,Wunderground v.1.15,2013-01-08 14:10:00,
2013-01-08 07:15:00,37.8,11.2,29.80,SSE,156,4.0,12.0,33,0.00,,,0.00,5,Wunderground v.1.15,2013-01-08 14:15:00,
2013-01-08 07:20:00,38.2,11.6,29.80,SSE,156,4.0,12.0,33,0.00,,,0.00,5,Wunderground v.1.15,2013-01-08 14:20:00,
2013-01-08 07:25:00,38.6,11.2,29.80,SSE,153,5.0,12.0,32,0.00,,,0.00,5,Wunderground v.1.15,2013-01-08 14:25:00,
2013-01-08 07:35:00,38.8,11.4,29.82,SSE,157,4.0,7.0,32,0.00,,,0.00,32,Wunderground v.1.15,2013-01-08 14:35:00,
2013-01-08 07:40:00,38.6,11.9,29.82,SSE,161,3.0,12.0,33,0.00,,,0.00,53,Wunderground v.1.15,2013-01-08 14:40:00,
2013-01-08 07:45:00,38.3,11.7,29.82,SSE,161,2.0,12.0,33,0.00,,,0.00,58,Wunderground v.1.15,2013-01-08 14:45:00,
2013-01-08 07:50:00,39.1,12.4,29.83,SSE,165,2.0,2.0,33,0.00,,,0.00,65,Wunderground v.1.15,2013-01-08 14:50:00,
2013-01-08 07:55:00,39.4,12.6,29.83,SSE,165,1.0,12.0,33,0.00,,,0.00,74,Wunderground v.1.15,2013-01-08 14:55:00,
2013-01-08 08:05:00,40.5,12.9,29.83,SSE,165,1.0,12.0,32,0.00,,,0.00,84,Wunderground v.1.15,2013-01-08 15:05:00,
2013-01-08 08:10:00,40.8,13.9,29.84,SSE,165,2.0,12.0,33,0.00,,,0.00,98,Wunderground v.1.15,2013-01-08 15:10:00,
2013-01-08 08:15:00,41.3,14.3,29.84,South,171,2.0,12.0,33,0.00,,,0.00,95,Wunderground v.1.15,2013-01-08 15:15:00,
2013-01-08 08:20:00,42.1,13.6,29.85,South,172,1.0,1.0,31,0.00,,,0.00,100,Wunderground v.1.15,2013-01-08 15:20:00,
2013-01-08 08:25:00,42.8,14.2,29.84,South,172,0.0,12.0,31,0.00,,,0.00,111,Wunderground v.1.15,2013-01-08 15:25:00,
2013-01-08 08:30:00,43.4,14.0,29.84,South,172,1.0,1.0,30,0.00,,,0.00,132,Wunderground v.1.15,2013-01-08 15:30:00,
2013-01-08 08:35:00,44.0,14.5,29.85,South,174,1.0,12.0,30,0.00,,,0.00,134,Wunderground v.1.15,2013-01-08 15:35:00,
2013-01-08 08:45:00,45.7,14.4,29.86,South,173,1.0,12.0,28,0.00,,,0.00,118,Wunderground v.1.15,2013-01-08 15:45:00,
2013-01-08 08:50:00,46.7,14.4,29.86,South,173,1.0,12.0,27,0.00,,,0.00,125,Wunderground v.1.15,2013-01-08 15:50:00,
2013-01-08 08:55:00,46.7,15.3,29.86,South,173,2.0,12.0,28,0.00,,,0.00,132,Wunderground v.1.15,2013-01-08 15:55:00,
2013-01-08 09:00:00,46.9,14.6,29.85,South,173,4.0,12.0,27,0.00,,,0.00,163,Wunderground v.1.15,2013-01-08 16:00:00,
2013-01-08 09:10:00,48.2,14.9,29.85,South,174,2.0,2.0,26,0.00,,,0.00,204,Wunderground v.1.15,2013-01-08 16:10:00,
2013-01-08 09:15:00,49.3,14.9,29.85,South,173,1.0,5.0,25,0.00,,,0.00,223,Wunderground v.1.15,2013-01-08 16:15:00,
2013-01-08 09:20:00,49.8,15.3,29.85,South,173,3.0,3.0,25,0.00,,,0.00,241,Wunderground v.1.15,2013-01-08 16:20:00,
2013-01-08 09:25:00,49.9,15.4,29.84,SSE,163,4.0,4.0,25,0.00,,,0.00,250,Wunderground v.1.15,2013-01-08 16:25:00,
2013-01-08 09:30:00,50.3,15.8,29.85,SSE,163,3.0,3.0,25,0.00,,,0.00,257,Wunderground v.1.15,2013-01-08 16:30:00,
2013-01-08 09:40:00,51.2,15.6,29.85,SSW,194,2.0,2.0,24,0.00,,,0.00,353,Wunderground v.1.15,2013-01-08 16:40:00,
2013-01-08 09:45:00,51.5,14.9,29.85,SSW,194,2.0,12.0,23,0.00,,,0.00,387,Wunderground v.1.15,2013-01-08 16:45:00,
2013-01-08 09:50:00,52.4,14.6,29.85,SSW,196,2.0,12.0,22,0.00,,,0.00,396,Wunderground v.1.15,2013-01-08 16:50:00,
2013-01-08 09:55:00,53.4,15.4,29.85,SSW,197,2.0,12.0,22,0.00,,,0.00,418,Wunderground v.1.15,2013-01-08 16:55:00,
2013-01-08 10:05:00,55.3,14.8,29.85,SSW,198,1.0,12.0,20,0.00,,,0.00,327,Wunderground v.1.15,2013-01-08 17:05:00,
2013-01-08 10:10:00,55.0,14.6,29.85,SW,222,1.0,12.0,20,0.00,,,0.00,309,Wunderground v.1.15,2013-01-08 17:10:00,
2013-01-08 10:15:00,55.2,15.9,29.85,NW,312,2.0,12.0,21,0.00,,,0.00,383,Wunderground v.1.15,2013-01-08 17:15:00,
2013-01-08 10:25:00,55.1,14.7,29.85,NNW,347,3.0,12.0,20,0.00,,,0.00,359,Wunderground v.1.15,2013-01-08 17:25:00,
2013-01-08 10:30:00,55.0,14.6,29.85,NW,314,5.0,12.0,20,0.00,,,0.00,364,Wunderground v.1.15,2013-01-08 17:30:00,
2013-01-08 10:35:00,55.1,14.7,29.85,NE,52,7.0,12.0,20,0.00,,,0.00,381,Wunderground v.1.15,2013-01-08 17:35:00,
2013-01-08 10:45:00,55.0,14.6,29.85,North,5,9.0,12.0,20,0.00,,,0.00,367,Wunderground v.1.15,2013-01-08 17:45:00,
2013-01-08 10:50:00,55.0,14.6,29.84,NNW,346,9.0,9.0,20,0.00,,,0.00,369,Wunderground v.1.15,2013-01-08 17:50:00,
2013-01-08 10:55:00,55.1,14.7,29.85,NNE,20,8.0,11.0,20,0.00,,,0.00,371,Wunderground v.1.15,2013-01-08 17:55:00,
2013-01-08 11:00:00,55.1,14.7,29.85,North,350,8.0,12.0,20,0.00,,,0.00,313,Wunderground v.1.15,2013-01-08 18:00:00,
2013-01-08 11:05:00,54.9,15.6,29.85,NNW,342,8.0,12.0,21,0.00,,,0.00,309,Wunderground v.1.15,2013-01-08 18:05:00,
2013-01-08 11:15:00,54.4,15.2,29.84,SE,135,7.0,12.0,21,0.00,,,0.00,315,Wunderground v.1.15,2013-01-08 18:15:00,
2013-01-08 11:20:00,54.5,15.3,29.84,SE,136,6.0,6.0,21,0.00,,,0.00,345,Wunderground v.1.15,2013-01-08 18:20:00,
2013-01-08 11:25:00,54.6,15.4,29.84,NE,38,5.0,12.0,21,0.00,,,0.00,341,Wunderground v.1.15,2013-01-08 18:25:00,
2013-01-08 11:30:00,54.8,15.6,29.84,SW,217,4.0,12.0,21,0.00,,,0.00,315,Wunderground v.1.15,2013-01-08 18:30:00,
2013-01-08 11:35:00,54.1,15.0,29.84,West,278,5.0,12.0,21,0.00,,,0.00,339,Wunderground v.1.15,2013-01-08 18:35:00,
2013-01-08 11:45:00,54.7,16.5,29.84,WNW,287,5.0,12.0,22,0.00,,,0.00,352,Wunderground v.1.15,2013-01-08 18:45:00,
2013-01-08 11:50:00,55.0,15.7,29.84,North,360,4.0,4.0,21,0.00,,,0.00,359,Wunderground v.1.15,2013-01-08 18:50:00,
2013-01-08 11:55:00,54.7,15.5,29.84,West,261,4.0,12.0,21,0.00,,,0.00,327,Wunderground v.1.15,2013-01-08 18:55:00,
2013-01-08 12:00:00,54.6,16.5,29.83,West,272,5.0,5.0,22,0.00,,,0.00,304,Wunderground v.1.15,2013-01-08 19:00:00,
2013-01-08 12:05:00,54.7,16.5,29.83,NNW,336,3.0,12.0,22,0.00,,,0.00,302,Wunderground v.1.15,2013-01-08 19:05:00,
2013-01-08 12:10:00,54.6,16.5,29.83,NNE,32,4.0,4.0,22,0.00,,,0.00,285,Wunderground v.1.15,2013-01-08 19:10:00,
2013-01-08 12:20:00,53.9,15.9,29.84,West,261,7.0,7.0,22,0.00,,,0.00,359,Wunderground v.1.15,2013-01-08 19:20:00,
2013-01-08 12:25:00,54.0,17.0,29.83,North,360,8.0,8.0,23,0.00,,,0.00,325,Wunderground v.1.15,2013-01-08 19:25:00,
2013-01-08 12:30:00,54.2,16.1,29.84,NW,304,5.0,5.0,22,0.00,,,0.00,329,Wunderground v.1.15,2013-01-08 19:30:00,
2013-01-08 12:35:00,54.4,16.3,29.84,NW,304,4.0,12.0,22,0.00,,,0.00,325,Wunderground v.1.15,2013-01-08 19:35:00,
2013-01-08 12:40:00,54.6,16.5,29.84,WNW,292,4.0,4.0,22,0.00,,,0.00,304,Wunderground v.1.15,2013-01-08 19:40:00,
2013-01-08 12:50:00,54.1,17.1,29.84,West,277,6.0,6.0,23,0.00,,,0.00,271,Wunderground v.1.15,2013-01-08 19:50:00,
2013-01-08 12:55:00,53.8,16.8,29.84,WNW,286,5.0,12.0,23,0.00,,,0.00,279,Wunderground v.1.15,2013-01-08 19:55:00,
2013-01-08 13:00:00,53.8,16.8,29.84,West,267,6.0,12.0,23,0.00,,,0.00,278,Wunderground v.1.15,2013-01-08 20:00:00,
2013-01-08 13:05:00,53.6,16.6,29.84,West,270,6.0,13.0,23,0.00,,,0.00,246,Wunderground v.1.15,2013-01-08 20:05:00,
2013-01-08 13:10:00,53.4,16.5,29.84,SE,142,8.0,8.0,23,0.00,,,0.00,262,Wunderground v.1.15,2013-01-08 20:10:00,
2013-01-08 13:20:00,53.7,16.7,29.85,West,275,5.0,12.0,23,0.00,,,0.00,218,Wunderground v.1.15,2013-01-08 20:20:00,
2013-01-08 13:25:00,53.8,16.8,29.84,North,355,4.0,12.0,23,0.00,,,0.00,207,Wunderground v.1.15,2013-01-08 20:25:00,
2013-01-08 13:30:00,54.0,17.0,29.85,NNW,338,3.0,3.0,23,0.00,,,0.00,225,Wunderground v.1.15,2013-01-08 20:30:00,
2013-01-08 13:35:00,54.1,16.0,29.85,WNW,296,2.0,12.0,22,0.00,,,0.00,221,Wunderground v.1.15,2013-01-08 20:35:00,
2013-01-08 13:40:00,53.9,16.9,29.85,West,280,3.0,3.0,23,0.00,,,0.00,214,Wunderground v.1.15,2013-01-08 20:40:00,
2013-01-08 13:45:00,53.9,16.9,29.85,NW,311,4.0,4.0,23,0.00,,,0.00,218,Wunderground v.1.15,2013-01-08 20:45:00,
2013-01-08 13:55:00,54.2,17.1,29.86,NW,319,2.0,12.0,23,0.00,,,0.00,193,Wunderground v.1.15,2013-01-08 20:55:00,
2013-01-08 14:00:00,54.5,16.4,29.86,NNW,343,1.0,12.0,22,0.00,,,0.00,200,Wunderground v.1.15,2013-01-08 21:00:00,
2013-01-08 14:05:00,54.8,16.6,29.87,NNW,330,2.0,12.0,22,0.00,,,0.00,200,Wunderground v.1.15,2013-01-08 21:05:00,
2013-01-08 14:10:00,54.9,15.6,29.87,NNW,330,1.0,1.0,21,0.00,,,0.00,195,Wunderground v.1.15,2013-01-08 21:10:00,
2013-01-08 14:15:00,54.7,16.5,29.88,NW,326,2.0,5.0,22,0.00,,,0.00,185,Wunderground v.1.15,2013-01-08 21:15:00,
2013-01-08 14:25:00,54.8,16.6,29.88,North,355,2.0,12.0,22,0.00,,,0.00,165,Wunderground v.1.15,2013-01-08 21:25:00,
2013-01-08 14:30:00,54.6,16.5,29.89,NW,315,2.0,12.0,22,0.00,,,0.00,171,Wunderground v.1.15,2013-01-08 21:30:00,
2013-01-08 14:35:00,54.5,16.4,29.89,NNE,19,3.0,12.0,22,0.00,,,0.00,165,Wunderground v.1.15,2013-01-08 21:35:00,
2013-01-08 14:40:00,54.4,16.3,29.89,NNW,331,4.0,12.0,22,0.00,,,0.00,155,Wunderground v.1.15,2013-01-08 21:40:00,
2013-01-08 14:45:00,54.3,17.2,29.89,North,351,4.0,12.0,23,0.00,,,0.00,137,Wunderground v.1.15,2013-01-08 21:45:00,
2013-01-08 14:55:00,54.1,16.0,29.90,North,351,3.0,12.0,22,0.00,,,0.00,127,Wunderground v.1.15,2013-01-08 21:55:00,
2013-01-08 15:00:00,54.1,16.0,29.90,NNW,335,2.0,12.0,22,0.00,,,0.00,125,Wunderground v.1.15,2013-01-08 22:00:00,
2013-01-08 15:05:00,54.1,16.0,29.90,NNW,348,3.0,12.0,22,0.00,,,0.00,128,Wunderground v.1.15,2013-01-08 22:05:00,
2013-01-08 15:10:00,54.1,16.0,29.90,North,350,3.0,3.0,22,0.00,,,0.00,137,Wunderground v.1.15,2013-01-08 22:10:00,
2013-01-08 15:15:00,54.2,16.1,29.90,NNW,346,2.0,12.0,22,0.00,,,0.00,125,Wunderground v.1.15,2013-01-08 22:15:00,
2013-01-08 15:20:00,54.4,16.3,29.91,NNW,342,3.0,3.0,22,0.00,,,0.00,105,Wunderground v.1.15,2013-01-08 22:20:00,
2013-01-08 15:30:00,54.4,16.3,29.91,North,360,3.0,12.0,22,0.00,,,0.00,84,Wunderground v.1.15,2013-01-08 22:30:00,
2013-01-08 15:35:00,54.2,16.1,29.92,North,350,4.0,12.0,22,0.00,,,0.00,79,Wunderground v.1.15,2013-01-08 22:35:00,
2013-01-08 15:40:00,54.0,16.0,29.92,North,355,5.0,12.0,22,0.00,,,0.00,76,Wunderground v.1.15,2013-01-08 22:40:00,
2013-01-08 15:45:00,53.8,15.8,29.92,North,360,6.0,12.0,22,0.00,,,0.00,69,Wunderground v.1.15,2013-01-08 22:45:00,
2013-01-08 15:50:00,53.5,16.6,29.93,NNW,346,5.0,5.0,23,0.00,,,0.00,60,Wunderground v.1.15,2013-01-08 22:50:00,
2013-01-08 16:00:00,52.9,16.1,29.93,North,5,4.0,12.0,23,0.00,,,0.00,40,Wunderground v.1.15,2013-01-08 23:00:00,
2013-01-08 16:05:00,52.6,16.8,29.94,North,5,5.0,12.0,24,0.00,,,0.00,37,Wunderground v.1.15,2013-01-08 23:05:00,
2013-01-08 16:10:00,52.2,16.4,29.94,North,5,4.0,4.0,24,0.00,,,0.00,33,Wunderground v.1.15,2013-01-08 23:10:00,
2013-01-08 16:15:00,52.0,16.3,29.94,North,5,1.0,12.0,24,0.00,,,0.00,30,Wunderground v.1.15,2013-01-08 23:15:00,
2013-01-08 16:20:00,51.8,16.1,29.95,North,5,1.0,1.0,24,0.00,,,0.00,26,Wunderground v.1.15,2013-01-08 23:20:00,
2013-01-08 16:25:00,51.7,17.0,29.95,North,5,0.0,12.0,25,0.00,,,0.00,26,Wunderground v.1.15,2013-01-08 23:25:00,
2013-01-08 16:35:00,51.7,17.0,29.96,North,5,0.0,12.0,25,0.00,,,0.00,14,Wunderground v.1.15,2013-01-08 23:35:00,
2013-01-08 16:45:00,51.3,16.6,29.97,North,5,0.0,12.0,25,0.00,,,0.00,7,Wunderground v.1.15,2013-01-08 23:45:00,
2013-01-08 16:50:00,51.1,16.4,29.97,North,5,0.0,12.0,25,0.00,,,0.00,0,Wunderground v.1.15,2013-01-08 23:50:00,
2013-01-08 16:55:00,50.9,16.3,29.97,North,5,0.0,12.0,25,0.00,,,0.00,0,Wunderground v.1.15,2013-01-08 23:55:00,
2013-01-08 17:05:00,50.4,16.8,29.98,North,5,2.0,12.0,26,0.00,,,0.00,0,Wunderground v.1.15,2013-01-09 00:05:00,
2013-01-08 17:10:00,50.3,16.7,29.98,North,5,3.0,12.0,26,0.00,,,0.00,0,Wunderground v.1.15,2013-01-09 00:10:00,
2013-01-08 17:15:00,50.1,16.5,29.99,North,5,3.0,12.0,26,0.00,,,0.00,0,Wunderground v.1.15,2013-01-09 00:15:00,
2013-01-08 17:20:00,50.0,16.4,29.99,SE,132,3.0,12.0,26,0.00,,,0.00,0,Wunderground v.1.15,2013-01-09 00:20:00,
2013-01-08 17:25:00,49.7,17.0,30.00,SSE,166,4.0,12.0,27,0.00,,,0.00,0,Wunderground v.1.15,2013-01-09 00:25:00,
2013-01-08 17:35:00,49.3,17.5,30.00,SSE,166,0.0,12.0,28,0.00,,,0.00,0,Wunderground v.1.15,2013-01-09 00:35:00,
2013-01-08 17:40:00,49.4,17.6,30.00,SSE,166,0.0,12.0,28,0.00,,,0.00,0,Wunderground v.1.15,2013-01-09 00:40:00,
2013-01-08 17:45:00,49.5,17.7,30.00,SSE,166,0.0,12.0,28,0.00,,,0.00,0,Wunderground v.1.15,2013-01-09 00:45:00,
2013-01-08 17:50:00,49.3,17.5,30.00,SSE,166,0.0,12.0,28,0.00,,,0.00,0,Wunderground v.1.15,2013-01-09 00:50:00,
2013-01-08 17:55:00,48.8,17.9,30.01,SSE,166,0.0,12.0,29,0.00,,,0.00,0,Wunderground v.1.15,2013-01-09 00:55:00,
2013-01-08 18:00:00,48.6,16.9,30.01,SSE,166,0.0,12.0,28,0.00,,,0.00,0,Wunderground v.1.15,2013-01-09 01:00:00,
2013-01-08 18:05:00,48.7,17.8,30.02,SSE,166,1.0,12.0,29,0.00,,,0.00,0,Wunderground v.1.15,2013-01-09 01:05:00,
2013-01-08 18:10:00,47.8,17.8,30.02,South,169,1.0,12.0,30,0.00,,,0.00,0,Wunderground v.1.15,2013-01-09 01:10:00,
2013-01-08 18:15:00,46.8,17.7,30.03,South,171,2.0,12.0,31,0.00,,,0.00,0,Wunderground v.1.15,2013-01-09 01:15:00,
2013-01-08 18:25:00,45.9,18.4,30.03,South,171,2.0,3.0,33,0.00,,,0.00,0,Wunderground v.1.15,2013-01-09 01:25:00,
2013-01-08 18:30:00,45.2,18.5,30.03,South,171,2.0,2.0,34,0.00,,,0.00,0,Wunderground v.1.15,2013-01-09 01:30:00,
2013-01-08 18:40:00,44.5,18.5,30.04,South,172,3.0,12.0,35,0.00,,,0.00,0,Wunderground v.1.15,2013-01-09 01:40:00,
2013-01-08 18:45:00,44.3,19.0,30.04,South,172,3.0,12.0,36,0.00,,,0.00,0,Wunderground v.1.15,2013-01-09 01:45:00,
2013-01-08 18:55:00,44.2,18.9,30.04,South,172,2.0,12.0,36,0.00,,,0.00,0,Wunderground v.1.15,2013-01-09 01:55:00,
2013-01-08 19:00:00,44.1,18.8,30.05,South,172,2.0,2.0,36,0.00,,,0.00,0,Wunderground v.1.15,2013-01-09 02:00:00,
2013-01-08 19:05:00,44.1,18.8,30.05,South,172,1.0,12.0,36,0.00,,,0.00,0,Wunderground v.1.15,2013-01-09 02:05:00,
2013-01-08 19:15:00,43.9,19.3,30.05,South,172,3.0,12.0,37,0.00,,,0.00,0,Wunderground v.1.15,2013-01-09 02:15:00,
2013-01-08 19:20:00,43.8,19.2,30.05,South,172,2.0,12.0,37,0.00,,,0.00,0,Wunderground v.1.15,2013-01-09 02:20:00,
2013-01-08 19:25:00,43.6,19.0,30.05,South,172,2.0,12.0,37,0.00,,,0.00,0,Wunderground v.1.15,2013-01-09 02:25:00,
2013-01-08 19:30:00,43.4,18.8,30.05,South,172,2.0,12.0,37,0.00,,,0.00,0,Wunderground v.1.15,2013-01-09 02:30:00,
2013-01-08 19:40:00,43.7,19.1,30.06,South,172,2.0,2.0,37,0.00,,,0.00,0,Wunderground v.1.15,2013-01-09 02:40:00,
2013-01-08 19:45:00,43.8,19.8,30.06,South,172,1.0,12.0,38,0.00,,,0.00,0,Wunderground v.1.15,2013-01-09 02:45:00,
2013-01-08 19:50:00,43.7,19.7,30.07,South,172,1.0,1.0,38,0.00,,,0.00,0,Wunderground v.1.15,2013-01-09 02:50:00,
2013-01-08 19:55:00,43.4,19.5,30.07,South,172,2.0,3.0,38,0.00,,,0.00,0,Wunderground v.1.15,2013-01-09 02:55:00,
2013-01-08 20:00:00,43.4,19.5,30.07,South,171,3.0,3.0,38,0.00,,,0.00,0,Wunderground v.1.15,2013-01-09 03:00:00,
2013-01-08 20:05:00,43.3,20.0,30.06,South,171,3.0,12.0,39,0.00,,,0.00,0,Wunderground v.1.15,2013-01-09 03:05:00,
2013-01-08 20:15:00,43.1,19.8,30.07,South,171,4.0,12.0,39,0.00,,,0.00,0,Wunderground v.1.15,2013-01-09 03:15:00,
2013-01-08 20:20:00,42.8,19.5,30.08,South,171,4.0,4.0,39,0.00,,,0.00,0,Wunderground v.1.15,2013-01-09 03:20:00,
2013-01-08 20:25:00,42.5,19.8,30.08,South,171,3.0,12.0,40,0.00,,,0.00,0,Wunderground v.1.15,2013-01-09 03:25:00,
2013-01-08 20:30:00,42.1,20.1,30.08,South,171,3.0,12.0,41,0.00,,,0.00,0,Wunderground v.1.15,2013-01-09 03:30:00,
2013-01-08 20:35:00,41.8,19.8,30.09,South,171,3.0,12.0,41,0.00,,,0.00,0,Wunderground v.1.15,2013-01-09 03:35:00,
2013-01-08 20:45:00,41.2,19.8,30.10,South,171,4.0,12.0,42,0.00,,,0.00,0,Wunderground v.1.15,2013-01-09 03:45:00,
2013-01-08 20:50:00,40.8,20.0,30.10,South,171,4.0,12.0,43,0.00,,,0.00,0,Wunderground v.1.15,2013-01-09 03:50:00,
2013-01-08 20:55:00,40.4,20.2,30.10,South,171,4.0,12.0,44,0.00,,,0.00,0,Wunderground v.1.15,2013-01-09 03:55:00,
2013-01-08 21:00:00,39.9,20.3,30.10,South,171,6.0,12.0,45,0.00,,,0.00,0,Wunderground v.1.15,2013-01-09 04:00:00,
2013-01-08 21:05:00,39.7,20.1,30.10,South,169,6.0,12.0,45,0.00,,,0.00,0,Wunderground v.1.15,2013-01-09 04:05:00,
2013-01-08 21:15:00,39.3,20.2,30.10,South,169,4.0,12.0,46,0.00,,,0.00,0,Wunderground v.1.15,2013-01-09 04:15:00,
2013-01-08 21:20:00,38.6,20.1,30.11,South,169,4.0,4.0,47,0.00,,,0.00,0,Wunderground v.1.15,2013-01-09 04:20:00,
2013-01-08 21:25:00,38.4,19.9,30.11,South,169,4.0,12.0,47,0.00,,,0.00,0,Wunderground v.1.15,2013-01-09 04:25:00,
2013-01-08 21:30:00,38.3,20.3,30.11,South,169,4.0,12.0,48,0.00,,,0.00,0,Wunderground v.1.15,2013-01-09 04:30:00,
2013-01-08 21:35:00,38.2,20.2,30.11,South,169,3.0,12.0,48,0.00,,,0.00,0,Wunderground v.1.15,2013-01-09 04:35:00,
2013-01-08 21:40:00,37.9,20.4,30.12,South,169,1.0,12.0,49,0.00,,,0.00,0,Wunderground v.1.15,2013-01-09 04:40:00,
2013-01-08 21:50:00,37.5,20.1,30.12,South,169,3.0,3.0,49,0.00,,,0.00,0,Wunderground v.1.15,2013-01-09 04:50:00,
2013-01-08 21:55:00,37.3,20.3,30.12,South,169,3.0,12.0,50,0.00,,,0.00,0,Wunderground v.1.15,2013-01-09 04:55:00,
2013-01-08 22:00:00,37.4,20.0,30.13,South,169,3.0,12.0,49,0.00,,,0.00,0,Wunderground v.1.15,2013-01-09 05:00:00,
2013-01-08 22:05:00,37.6,20.1,30.13,South,169,4.0,12.0,49,0.00,,,0.00,0,Wunderground v.1.15,2013-01-09 05:05:00,
2013-01-08 22:10:00,37.5,19.6,30.13,South,169,4.0,12.0,48,0.00,,,0.00,0,Wunderground v.1.15,2013-01-09 05:10:00,
2013-01-08 22:15:00,37.4,20.0,30.13,South,169,4.0,12.0,49,0.00,,,0.00,0,Wunderground v.1.15,2013-01-09 05:15:00,
2013-01-08 22:20:00,37.3,19.9,30.13,South,169,4.0,4.0,49,0.00,,,0.00,0,Wunderground v.1.15,2013-01-09 05:20:00,
2013-01-08 22:25:00,36.9,20.0,30.13,South,169,3.0,5.0,50,0.00,,,0.00,0,Wunderground v.1.15,2013-01-09 05:25:00,
2013-01-08 22:30:00,36.3,19.9,30.13,South,173,4.0,12.0,51,0.00,,,0.00,0,Wunderground v.1.15,2013-01-09 05:30:00,
2013-01-08 22:35:00,35.6,20.1,30.13,South,172,5.0,12.0,53,0.00,,,0.00,0,Wunderground v.1.15,2013-01-09 05:35:00,
2013-01-08 22:40:00,35.5,20.0,30.13,South,171,6.0,6.0,53,0.00,,,0.00,0,Wunderground v.1.15,2013-01-09 05:40:00,
2013-01-08 22:45:00,35.3,19.9,30.14,South,169,6.0,12.0,53,0.00,,,0.00,0,Wunderground v.1.15,2013-01-09 05:45:00,
2013-01-08 22:55:00,34.6,19.6,30.15,South,171,4.0,12.0,54,0.00,,,0.00,0,Wunderground v.1.15,2013-01-09 05:55:00,
2013-01-08 23:05:00,33.8,19.7,30.15,South,171,2.0,12.0,56,0.00,,,0.00,0,Wunderground v.1.15,2013-01-09 06:05:00,
2013-01-08 23:10:00,33.7,19.7,30.15,South,171,2.0,2.0,56,0.00,,,0.00,0,Wunderground v.1.15,2013-01-09 06:10:00,
2013-01-08 23:15:00,33.6,20.0,30.15,South,171,2.0,12.0,57,0.00,,,0.00,0,Wunderground v.1.15,2013-01-09 06:15:00,
2013-01-08 23:25:00,33.1,19.9,30.15,South,171,1.0,12.0,58,0.00,,,0.00,0,Wunderground v.1.15,2013-01-09 06:25:00,
2013-01-08 23:30:00,32.9,19.7,30.15,South,171,1.0,12.0,58,0.00,,,0.00,0,Wunderground v.1.15,2013-01-09 06:30:00,
2013-01-08 23:35:00,33.2,20.0,30.15,South,171,3.0,12.0,58,0.00,,,0.00,0,Wunderground v.1.15,2013-01-09 06:35:00,
2013-01-08 23:40:00,33.5,19.9,30.16,South,171,4.0,12.0,57,0.00,,,0.00,0,Wunderground v.1.15,2013-01-09 06:40:00,
2013-01-08 23:45:00,33.7,19.7,30.15,South,169,4.0,12.0,56,0.00,,,0.00,0,Wunderground v.1.15,2013-01-09 06:45:00,
2013-01-08 23:50:00,33.8,19.7,30.16,South,169,4.0,4.0,56,0.00,,,0.00,0,Wunderground v.1.15,2013-01-09 06:50:00,